Location: Unspecified
(0.0000°N, 0.0000°E)
Time: 04:01:12
(UTC+00:00)

COSMOS 2390 - Visible Passes

Search period start: 14 May 2026 00:00
Search period end: 24 May 2026 00:00
Orbit: 1467 x 1507 km, 82.5° (Epoch: 13 May)

Date Brightness Start Highest point End Pass type
(mag) Time Alt. Az. Time Alt. Az. Time Alt. Az.
14 May 9.4 19:11:15 10° ENE 19:12:53 12° ENE 19:12:53 12° ENE visible
14 May 8.6 21:02:55 10° NNW 21:08:42 45° NNW 21:08:42 45° NNW visible
15 May 8.2 20:11:52 10° N 20:18:30 49° NE 20:18:30 49° NE visible
15 May 10.0 22:11:41 10° WNW 22:14:20 15° WNW 22:14:20 15° WNW visible
16 May 8.8 19:22:29 10° NE 19:28:22 25° ENE 19:28:22 25° ENE visible
16 May 8.9 21:17:32 10° NNW 21:24:11 39° WNW 21:24:11 39° WNW visible
17 May 7.8 20:25:38 10° N 20:34:06 84° NNW 20:34:06 84° NNW visible
18 May 8.1 19:35:10 10° NNE 19:43:20 42° E 19:44:03 42° E visible
18 May 9.4 21:32:53 10° NW 21:39:34 24° W 21:39:53 24° W visible
19 May 9.0 18:46:53 10° NE 18:52:11 17° E 18:54:03 16° ESE visible
19 May 8.3 20:39:53 10° NNW 20:48:26 57° W 20:49:54 52° SW visible
20 May 7.8 19:48:34 10° N 19:57:19 69° E 19:59:59 48° SSE visible
20 May 10.0 21:49:50 10° WNW 21:53:34 13° W 21:55:49 12° WSW visible
21 May 8.5 18:58:47 10° NNE 19:06:11 30° E 19:10:07 22° SE visible
21 May 9.1 20:54:43 10° NNW 21:02:25 35° W 21:05:58 26° SW visible
22 May 7.9 20:02:29 10° N 20:11:17 77° W 20:16:12 30° S visible
23 May 8.0 19:11:44 10° NNE 19:20:09 50° E 19:26:32 18° SSE visible
23 May 9.8 21:10:26 10° NW 21:16:23 20° W 21:22:24 10° SW visible
